Погода в Парном

Россия / Воронежская область     51°36′50″N   38°18′23″E
темп.,
°C
ветер,
м/с
пор.,
м/с
влажн.,
%
обл.,
%
осадки,
мм/ч
давл.,
гПа
погр.,
м
13 апреля, вт
вт1300:00+12вюв4126898 0.0 1024233
03:00+11вюв41270100 0.0 1024233
06:00+9вюв4107394 0.0 1024185
09:00+14юв61154100 0.0 1024441
12:00+18юв71034100 0.0 10231173
15:00+20юв811311 0.0 10221910
18:00+19юв51041100 0.0 1021448
21:00+14вюв495797 0.0 1022181
14 апреля, ср
ср1400:00+11вюв3566100 0.0 102191
03:00+10вюв3863100 0.0 1020151
06:00+8вюв37675 0.0 1020127
09:00+13юв575021 0.0 1019426
12:00+18юв573796 0.0 10181163
15:00+18ююв5741100 0.0 10171695
18:00+17ююв3543100 0.0 1016198
21:00+13з236799 0.0 101632
15 апреля, чт
чт1500:00+11сз2275100 0.0 101617
03:00+11ссз2274100 0.0 101518
06:00+11ссз2276100 0.0 101533
09:00+13вюв2461100 0.0 1015288
12:00+14ю4662100 0.2 10151034
15:00+17ююз35497 0.3 10131503
18:00+15ююв235893 1.1 1013585
21:00+11в358411 1.9 1014128
16 апреля, пт
пт1600:00+10в348291 0.0 101475
03:00+10юв118392 0.4 101316
06:00+10вюв368796 0.1 1014190
09:00+12вюв467875 0.2 1014510
12:00+15ю335742 0.9 10141311
15:00+17юв244686 2.3 10141767
18:00+14в456599 1.0 1015147
21:00+13ююв226615 1.2 101533
17 апреля, сб
сб1700:00+10всв117913 0.0 101614
03:00+10с239168 0.6 101682
06:00+10ссв4990100 1.1 1016303
09:00+11всв6984100 1.6 1016743
12:00+10ююв5891100 1.0 1017485
15:00+7юз4691100 6.3 1019335
18:00+7в1291100 4.5 1022288
21:00+7св2596100 6.4 1022284